{"data":{"norad_id":42063,"epoch":"2026-05-25T04:48:39.974688Z","epoch_age_seconds":50964,"freshness":"FRESH","line1":"1 42063U 17013A   26145.20046267 -.00000116  00000+0 -27453-4 0  9996","line2":"2 42063  98.5689 220.2987 0001220  90.0535 270.0787 14.30820531481358","mean_motion":14.30820531,"eccentricity":0.000122,"inclination_deg":98.5689,"raan_deg":220.2987,"arg_perigee_deg":90.0535,"mean_anomaly_deg":270.0787,"bstar":-2.7453e-5,"rev_number":48135,"period_min":100.64155278745,"perigee_km":788.11504403402,"apogee_km":789.86382288378,"semimajor_km":7167.1264334589,"source":"CELESTRAK","updated_at":"2026-05-25T13:38:12.825445Z"}}